sat.trackr.live / text

‹ back to catalog

HERMES-6

NORAD 63489 · 2025-052BK

PAYLOAD ACTIVE UNKNOWN

§ Identity

Operator
Country
IT
Launch date
2025-03-15
Launch site
AFWTR
Launch vehicle
Mass (kg)
RCS (m²)

External: N2YO · Heavens-Above · Gunter

§ Orbital elements

Epoch: 2026-09-21T22:46:34.252320Z

Period
94.49 min
Inclination
97.3854°
Eccentricity
0.0006000
Mean motion
15.23986767 rev/d
Perigee alt
489.7 km
Apogee alt
498.0 km
Semi-major
6,872.0 km
B*
1.3439e-4
RAAN
156.0306°
Arg perigee
173.1379°
Mean anomaly
186.9941°
Rev number
8,456

§ Raw data

HERMES-61 63489U 25052BK  26264.94900755  .00003184  00000+0  13439-3 0  99912 63489  97.3854 156.0306 0006000 173.1379 186.9941 15.23986767 84561

JSON: /api/v1/satellites/63489 · /tle

For live sub-satellite position, see the globe view (requires WebGL).

§ Visibility from observer

Set your observer location to see the next 7 days of passes ≥ 10°. The values pass through the URL so the page stays shareable.

No JS? Fill the form by hand. The geolocation button needs JavaScript.

§ Radio — SatNOGS DB

ModeDescriptionDownlinkUplink
GFSK Mode U - Transmitter 401.500 MHz

1 transmitter · refreshed weekly from db.satnogs.org